Location: Spring Creek
(38.2870°N, 100.2160°W)
Time: 11:11:55
(UTC+00:00)

SL-16 R/B - Visible Passes

Search period start: 20 September 2021 00:00
Search period end: 30 September 2021 00:00
Orbit: 986 x 1006 km, 99.5° (Epoch: 19 September)

Date Brightness Start Highest point End Pass type
(mag) Time Alt. Az. Time Alt. Az. Time Alt. Az.
20 Sep 5.2 07:02:10 12° NNE 07:02:10 12° NNE 07:02:45 10° NNE visible
20 Sep 4.8 08:47:16 15° NNW 08:47:16 15° NNW 08:48:11 10° NNW visible
21 Sep 5.0 07:33:35 15° NNE 07:33:35 15° NNE 07:34:40 10° N visible
21 Sep 4.9 09:18:41 10° NNW 09:18:41 10° NNW 09:18:46 10° NNW visible
22 Sep 4.9 08:05:00 15° N 08:05:00 15° N 08:06:02 10° N visible
23 Sep 4.9 08:36:25 13° NNW 08:36:25 13° NNW 08:37:03 10° NNW visible
24 Sep 5.2 07:22:44 12° NNE 07:22:44 12° NNE 07:23:13 10° NNE visible
25 Sep 5.1 07:54:09 13° N 07:54:09 13° N 07:54:45 10° N visible
26 Sep 5.1 08:25:34 12° N 08:25:34 12° N 08:25:53 10° N visible
28 Sep 5.3 07:43:18 10° N 07:43:18 10° N 07:43:24 10° N visible
